Voltar ao catálogo

FLORIPASAT 1

AtivoCiênciaSSO
NORAD 44885·PAYLOAD·🇧🇷 Brazil
Este nome de satélite ainda não foi confirmado por fontes oficiais.

Lançado Dec 20, 2019 de Taiyuan Satellite Launch Center

Loading…

Próximas Passagens (próximas 24 horas)

TLE

AtualizadoSource: Space-Track

Época: Sep 14, 2026, 13:25 UTC

1 44885U 19093G   26257.55966236  .00004072  00000-0  29372-3 0  9994
2 44885  97.7913 352.4933 0012432 124.9044 235.3352 15.04653488366082

Acompanhe FLORIPASAT 1 em tempo real com AllMySat

Download on the App Store